Weather reports worldwide

Advertisment
Nancy/Essey, France (7180): temperature & dewpoint: 14.01.2021 14:00:00 - 20.01.2021 14:00:00 (CET)Nancy/Essey, France (7180): temperature 5cm: 14.01.2021 14:00:00 - 20.01.2021 14:00:00 (CET)Nancy/Essey, France (7180): temperature -20cm & temperature -100cm: 14.01.2021 14:00:00 - 20.01.2021 14:00:00 (CET)Nancy/Essey, France (7180): wind speed & gusts: 14.01.2021 14:00:00 - 20.01.2021 14:00:00 (CET)Nancy/Essey, France (7180): wind direction: 14.01.2021 14:00:00 - 20.01.2021 14:00:00 (CET)Nancy/Essey, France (7180): reduced air pressure: 14.01.2021 14:00:00 - 20.01.2021 14:00:00 (CET)Nancy/Essey, France (7180): visibility: 14.01.2021 14:00:00 - 20.01.2021 14:00:00 (CET)Nancy/Essey, France (7180): sunshine duration: 14.01.2021 14:00:00 - 20.01.2021 14:00:00 (CET)Nancy/Essey, France (7180): precipitation: 14.01.2021 14:00:00 - 20.01.2021 14:00:00 (CET)
Date & Time tt [°C] td [°C] tt 5cm [°C] tt -20cm [°C] tt -100cm [°C] ff [km/h] ff [kn] fx [km/h] fx [kn] dd ppp [hPa] vv [km] sd [min] rr [mm]
20.01.2021 14:00:00 12,1 4,3 11,7 2,2 5,9 26 14 63 34 S 1003,2 42 58 0,0
20.01.2021 13:00:00 11,4 4,6 9,7 2,3 5,9 29 16 58 31 S 1004,2 53 54 0,0
20.01.2021 12:00:00 10,2 4,1 8,1 2,3 5,9 24 13 51 27 S 1005,6 34 60 0,0
20.01.2021 11:00:00 8,6 3,4 5,7 2,3 5,9 28 15 55 30 SSW 1006,6 60 8 0,0
20.01.2021 10:00:00 7,1 2,6 4,7 2,3 5,9 20 11 45 24 S 1007,6 53 36 0,0
20.01.2021 09:00:00 6,0 1,9 3,7 2,3 5,9 15 8 31 17 S 1008,2 53 0 0,0
20.01.2021 08:00:00 5,4 1,7 3,2 2,3 5,9 12 6 29 15 S 1008,8 45 0 0,0
20.01.2021 07:00:00 5,0 0,7 3,1 2,4 5,9 14 8 38 21 S 1009,3 47 0 0,0
20.01.2021 06:00:00 4,6 -0,6 2,4 2,4 5,9 22 12 36 19 S 1009,8 57 0 0,0
20.01.2021 05:00:00 4,0 -1,8 0,3 2,4 5,9 11 6 21 11 S 1010,6 60 0 0,0
20.01.2021 04:00:00 2,7 -2,2 -0,3 2,4 5,9 9 5 16 9 SE 1011,5 60 0 0,0
20.01.2021 03:00:00 2,7 -2,2 0,1 2,4 5,9 4 2 17 9 S 1012,0 59 0 0,0
20.01.2021 02:00:00 3,3 -2,5 -0,4 2,4 5,9 8 4 17 9 SSE 1012,3 60 0 0,0
20.01.2021 01:00:00 3,0 -2,5 0,6 2,4 5,9 8 4 19 10 ESE 1012,9 57 0 0,0
20.01.2021 00:00:00 3,5 -2,3 0,1 2,4 6,0 9 5 19 11 SSE 1013,4 53 0 0,0
19.01.2021 23:00:00 2,9 -2,0 0,0 2,4 5,9 9 5 22 12 SSE 1013,9 42 0 0,0
19.01.2021 22:00:00 3,2 -1,8 0,4 2,4 5,9 16 8 26 14 SSE 1014,5 39 0 0,0
19.01.2021 21:00:00 2,4 -2,5 0,1 2,4 6,0 13 7 19 10 ESE 1015,0 53 0 0,0
19.01.2021 20:00:00 2,6 -1,9 0,5 2,4 6,0 6 3 25 13 SE 1015,1 48 0 0,0
19.01.2021 19:00:00 3,2 -1,6 1,6 2,4 5,9 19 11 31 17 S 1015,4 44 0 0,0
19.01.2021 18:00:00 3,1 -1,7 1,8 2,4 6,0 20 11 37 20 SSE 1015,9 43 0 0,0
19.01.2021 17:00:00 3,7 -1,1 2,0 2,4 6,0 16 9 31 17 S 1016,3 41 15 0,0
19.01.2021 16:00:00 3,6 -0,6 2,3 2,4 6,0 15 8 37 20 SE 1016,4 39 0 0,0
19.01.2021 15:00:00 3,9 -0,5 2,5 2,4 6,0 19 10 31 17 S 1016,5 31 0 0,0
19.01.2021 14:00:00 3,8 -0,2 2,1 2,4 6,0 18 10 35 19 SSW 1017,1 30 0 0,0
19.01.2021 13:00:00 3,3 0,3 1,8 2,4 6,0 16 9 31 17 S 1017,8 18 0 0,0
19.01.2021 12:00:00 3,1 0,7 1,6 2,4 6,0 13 7 33 18 S 1018,5 8 0 0,4
19.01.2021 11:00:00 3,1 -0,5 1,9 2,4 6,0 16 9 32 17 S 1018,9 18 0 0,0
19.01.2021 10:00:00 2,6 -0,5 1,7 2,4 6,0 16 9 26 14 S 1019,4 29 0 0,0
19.01.2021 09:00:00 2,1 -0,5 1,4 2,4 6,0 18 10 31 17 S 1019,8 24 0 0,0
19.01.2021 08:00:00 2,1 -0,3 1,2 2,4 6,0 16 8 28 15 S 1020,4 20 0 0,0
19.01.2021 07:00:00 1,8 -0,5 0,8 2,4 6,0 15 8 32 18 S 1020,9 21 0 0,0
19.01.2021 06:00:00 1,7 -0,4 0,7 2,4 6,0 17 9 32 17 S 1021,5 21 0 0,0
19.01.2021 05:00:00 1,7 -0,2 1,1 2,4 6,0 11 6 29 16 S 1022,5 21 0 0,0
19.01.2021 04:00:00 1,5 -0,4 0,2 2,4 6,0 13 7 26 14 SSW 1023,3 14 0 0,0
19.01.2021 03:00:00 1,4 -0,8 -0,2 2,4 6,0 12 6 21 11 SSW 1023,9 16 0 0,0
19.01.2021 02:00:00 1,6 -0,7 0,4 2,4 6,0 10 5 21 11 S 1024,4 27 0 0,0
19.01.2021 01:00:00 2,2 -0,4 1,5 2,4 6,0 13 7 21 12 S 1025,1 31 0 0,0
19.01.2021 00:00:00 2,2 -0,1 1,3 2,4 6,0 7 4 16 8 S 1025,7 22 0 0,0
18.01.2021 23:00:00 2,3 0,2 1,3 2,4 6,0 9 5 20 11 S 1026,0 19 0 0,0
18.01.2021 22:00:00 2,3 0,2 1,2 2,4 6,0 8 4 21 11 S 1026,7 20 0 0,0
18.01.2021 21:00:00 2,0 0,2 1,2 2,4 6,0 11 6 26 14 S 1027,0 18 0 0,0
18.01.2021 20:00:00 2,3 0,2 1,7 2,4 6,0 12 6 21 11 S 1027,1 24 0 0,0
18.01.2021 19:00:00 2,9 0,0 2,0 2,4 6,1 10 5 19 10 S 1027,1 28 0 0,0
18.01.2021 18:00:00 3,3 0,0 2,1 2,4 6,0 9 5 19 10 SSW 1026,8 32 0 0,0
18.01.2021 17:00:00 3,7 0,2 2,5 2,4 6,1 9 5 20 11 S 1026,6 33 21 0,0
18.01.2021 16:00:00 4,8 0,2 4,2 2,4 6,1 12 7 24 13 SSW 1026,6 48 45 0,0
18.01.2021 15:00:00 4,7 0,1 4,2 2,4 6,1 12 6 22 12 S 1026,9 35 10 0,0
18.01.2021 14:00:00 5,2 0,0 4,8 2,3 6,1 13 7 22 12 SSW 1027,3 48 24 0,0
18.01.2021 13:00:00 5,1 -0,3 3,1 2,3 6,1 10 5 18 10 SW 1028,1 43 9 0,0
18.01.2021 12:00:00 4,1 0,1 2,8 2,3 6,1 4 2 15 8 SE 1028,6 39 22 0,0
18.01.2021 11:00:00 3,5 0,5 2,2 2,3 6,1 5 3 9 5 S 1028,9 20 0 0,0
18.01.2021 10:00:00 2,6 0,7 1,4 2,3 6,1 3 2 10 5 ESE 1029,0 22 0 0,0
18.01.2021 09:00:00 2,4 0,6 0,4 2,3 6,1 4 2 9 5 SW 1028,8 35 0 0,0
18.01.2021 08:00:00 1,9 0,7 0,2 2,3 6,1 3 2 8 4 SW 1028,4 13 0 0,0
18.01.2021 07:00:00 2,1 0,6 1,0 2,3 6,1 2 1 9 5 W 1028,1 44 0 0,0
18.01.2021 06:00:00 2,3 0,7 1,3 2,3 6,1 4 2 17 9 WNW 1028,1 42 0 0,0
18.01.2021 05:00:00 2,2 0,7 0,7 2,3 6,1 7 4 13 7 SW 1027,8 35 0 0,0
18.01.2021 04:00:00 1,8 0,8 0,7 2,3 6,1 5 3 10 5 SE 1028,0 31 0 0,0
18.01.2021 03:00:00 2,3 1,0 1,0 2,3 6,1 4 2 15 8 SW 1028,1 31 0 0,0
18.01.2021 02:00:00 2,2 0,7 1,4 2,3 6,1 2 1 12 7 NW 1027,9 27 0 0,0
18.01.2021 01:00:00 2,5 0,7 1,5 2,3 6,1 6 3 26 14 W 1027,7 26 0 0,0
18.01.2021 00:00:00 2,8 0,5 1,9 2,3 6,1 14 7 29 16 W 1027,5 27 0 0,0
17.01.2021 23:00:00 2,6 1,1 1,2 2,3 6,1 8 4 23 12 W 1027,4 19 0 0,0
17.01.2021 22:00:00 2,7 1,2 1,0 2,3 6,1 13 7 25 13 W 1027,0 16 0 0,0
17.01.2021 21:00:00 2,4 1,2 1,5 2,3 6,1 12 7 22 12 WNW 1026,6 15 0 0,0
17.01.2021 20:00:00 2,6 1,4 1,8 2,3 6,1 8 4 20 11 WNW 1026,3 16 0 0,0
17.01.2021 19:00:00 2,8 1,6 1,6 2,3 6,1 7 4 19 10 W 1025,9 18 0 0,0
17.01.2021 18:00:00 2,7 1,7 1,8 2,3 6,1 7 4 23 12 WNW 1025,5 16 0 0,0
17.01.2021 17:00:00 2,8 1,8 1,9 2,2 6,1 11 6 23 12 WNW 1024,5 16 0 0,0
17.01.2021 16:00:00 3,0 1,8 2,4 2,3 6,1 14 8 29 16 WNW 1023,5 10 12 0,0
17.01.2021 15:00:00 2,9 1,9 2,4 2,2 6,1 12 7 23 13 WNW 1022,4 13 0 0,0
17.01.2021 14:00:00 2,9 1,9 2,2 2,3 6,2 11 6 26 14 WNW 1021,6 10 3 0,0
17.01.2021 13:00:00 2,7 1,8 1,6 2,3 6,2 10 5 27 15 WNW 1021,6 8 0 0,0
17.01.2021 12:00:00 2,5 1,9 0,1 2,3 6,2 9 5 19 11 WNW 1021,3 12 0 0,2
17.01.2021 11:00:00 2,0 1,6 0,0 2,3 6,2 8 5 17 9 W 1020,9 10 0 0,8
17.01.2021 10:00:00 1,7 1,3 0,0 2,2 6,1 6 3 13 7 WNW 1020,1 9 0 0,4
17.01.2021 09:00:00 1,0 0,7 -0,1 2,2 6,1 2 1 9 5 SW 1019,7 2,8 0 0,4
17.01.2021 08:00:00 1,0 0,6 -0,1 2,3 6,2 6 4 11 6 SW 1018,9 7 0 0,0
17.01.2021 07:00:00 0,8 0,4 -0,1 2,3 6,2 3 2 11 6 WSW 1018,8 19 0 0,0
17.01.2021 06:00:00 1,0 0,4 -0,2 2,3 6,2 10 5 20 11 W 1018,5 14 0 0,2
17.01.2021 05:00:00 0,8 0,4 -0,4 2,3 6,2 6 3 16 9 WNW 1018,4 8 0 0,0
17.01.2021 04:00:00 -0,1 -0,4 -0,7 2,3 6,2 6 3 10 5 S 1017,8 7 0 0,2
17.01.2021 03:00:00 -0,4 -1,0 -1,0 2,3 6,2 3 1 11 6 SE 1018,0 7 0 0,0
17.01.2021 02:00:00 -0,7 -1,3 -1,3 2,3 6,2 6 3 16 9 S 1018,0 10 0 0,0
17.01.2021 01:00:00 -1,1 -1,7 -1,5 2,2 6,2 9 5 24 13 S 1018,5 1,9 0 0,0
17.01.2021 00:00:00 -1,3 -1,9 -1,8 2,3 6,2 10 5 23 12 S 1019,4 2,9 0 0,2
16.01.2021 23:00:00 -1,6 -2,3 -2,0 2,3 6,2 9 5 25 13 S 1020,0 1,9 0 0,0
16.01.2021 22:00:00 -1,8 -2,5 -2,3 2,3 6,2 15 8 28 15 S 1020,9 1,5 0 0,4
16.01.2021 21:00:00 -2,2 -2,9 -2,6 2,3 6,2 13 7 25 14 S 1021,7 1,1 0 0,6
16.01.2021 20:00:00 -2,3 -3,1 -2,6 2,3 6,2 14 8 25 13 S 1022,7 1,6 0 0,4
16.01.2021 19:00:00 -2,3 -3,1 -2,5 2,4 6,2 14 7 29 16 S 1023,6 1,4 0 0,0
16.01.2021 18:00:00 -2,1 -3,5 -2,4 2,4 6,2 15 8 26 14 S 1024,6 6 0 0,0
16.01.2021 17:00:00 -2,2 -3,3 -2,3 2,4 6,2 11 6 20 11 S 1025,5 7 0 0,0
16.01.2021 16:00:00 -2,6 -3,4 -2,4 2,4 6,2 6 3 16 9 S 1026,1 7 0 0,0
16.01.2021 15:00:00 -3,2 -4,0 -2,7 2,4 6,2 9 5 18 10 S 1026,9 6 0 0,0
16.01.2021 14:00:00 -4,1 -4,8 -3,0 2,4 6,2 10 5 17 9 S 1027,8 5 0 0,0
16.01.2021 13:00:00 -5,1 -5,8 -3,8 2,4 6,2 10 5 15 8 S 1029,0 3,8 0 0,0
16.01.2021 12:00:00 -6,1 -6,9 -5,8 2,4 6,2 10 5 16 9 S 1029,9 2,6 0 0,0
16.01.2021 11:00:00 -7,4 -8,1 -6,9 2,4 6,2 11 6 18 10 S 1030,5 3,0 2 0,0
16.01.2021 10:00:00 -8,0 -8,7 -7,6 2,5 6,3 6 4 10 5 S 1030,9 0,3 0 0,0
16.01.2021 09:00:00 -8,5 -9,2 -9,0 2,5 6,2 3 1 6 3 SSE 1031,1 0,1 2 0,0
16.01.2021 08:00:00 -9,5 -10,2 -12,9 2,5 6,3 2 1 8 5 NE 1031,3 0,1 0 0,0
16.01.2021 07:00:00 -10,6 -11,6 -16,5 2,5 6,2 0 0 4 2 N 1031,5 0,1 0 0,0
16.01.2021 06:00:00 -11,1 -12,3 -16,4 2,5 6,2 4 2 6 3 ESE 1031,7 3,2 0 0,0
16.01.2021 05:00:00 -10,9 -11,9 -15,6 2,5 6,3 2 1 6 3 ENE 1031,7 0,1 0 0,0
16.01.2021 04:00:00 -10,5 -11,4 -16,0 2,6 6,3 2 1 4 2 ENE 1031,7 0,3 0 0,0
16.01.2021 03:00:00 -10,0 -11,3 -15,6 2,6 6,3 1 1 9 5 S 1031,7 3,6 0 0,0
16.01.2021 02:00:00 -9,7 -10,8 -14,8 2,6 6,3 1 0 4 2 ESE 1031,7 0,5 0 0,0
16.01.2021 01:00:00 -9,1 -10,2 -14,5 2,6 6,3 3 1 5 3 ESE 1031,5 0,2 0 0,0
16.01.2021 00:00:00 -8,2 -9,0 -14,4 2,6 6,3 3 2 6 3 SE 1031,7 2,1 0 0,0
15.01.2021 23:00:00 -7,9 -8,6 -13,9 2,6 6,3 2 1 5 3 E 1031,5 1,2 0 0,0
15.01.2021 22:00:00 -6,7 -7,8 -12,8 2,6 6,3 2 1 3 2 E 1031,1 0,8 0 0,0
15.01.2021 21:00:00 -5,6 -6,6 -12,1 2,6 6,3 2 1 9 5 E 1030,3 6 0 0,0
15.01.2021 20:00:00 -3,8 -5,6 -10,1 2,6 6,3 2 1 10 5 SW 1029,9 19 0 0,0
15.01.2021 19:00:00 -4,5 -5,6 -10,5 2,6 6,3 6 4 9 5 NE 1029,6 22 0 0,0
15.01.2021 18:00:00 -2,0 -4,5 -7,4 2,6 6,3 6 3 15 8 N 1028,8 26 0 0,0
15.01.2021 17:00:00 -0,9 -4,3 -3,4 2,6 6,3 9 5 26 14 NNE 1028,2 31 38 0,0
15.01.2021 16:00:00 0,2 -3,5 -1,0 2,6 6,3 13 7 24 13 N 1027,4 28 60 0,0
15.01.2021 15:00:00 0,4 -3,7 0,9 2,6 6,3 17 9 29 16 NNE 1026,6 23 60 0,0
15.01.2021 14:00:00 0,2 -3,7 0,4 2,6 6,3 16 9 36 19 N 1026,0 20 60 0,0
15.01.2021 13:00:00 -0,1 -4,4 -0,2 2,6 6,3 19 10 34 19 NNE 1025,8 26 60 0,0
15.01.2021 12:00:00 -0,6 -4,0 -1,9 2,6 6,3 14 8 27 15 NNE 1025,5 30 57 0,0
15.01.2021 11:00:00 -1,5 -4,3 -2,8 2,6 6,3 15 8 32 18 NNE 1025,0 33 39 0,0
15.01.2021 10:00:00 -2,1 -4,4 -3,0 2,6 6,4 20 11 33 18 NNE 1023,7 36 0 0,0
15.01.2021 09:00:00 -2,1 -4,3 -3,0 2,6 6,4 19 10 37 20 NNE 1022,6 37 0 0,0
15.01.2021 08:00:00 -1,6 -3,5 -2,5 2,6 6,4 27 15 44 24 NNE 1021,4 49 0 0,0
15.01.2021 07:00:00 -1,1 -1,9 -1,2 2,6 6,4 28 15 38 20 NNE 1019,9 6 0 0,2
15.01.2021 06:00:00 -0,9 -1,5 -1,0 2,7 6,4 26 14 43 23 NNE 1018,9 2,7 0 0,0
15.01.2021 05:00:00 -0,4 -0,8 -0,2 2,6 6,4 25 14 41 22 NNE 1018,0 2,2 0 0,4
15.01.2021 04:00:00 0,2 -0,2 0,0 2,6 6,4 23 12 45 24 NE 1017,0 2,2 0 0,2
15.01.2021 03:00:00 0,4 -0,2 0,0 2,7 6,4 23 12 37 20 NE 1016,1 2,5 0 0,2
15.01.2021 02:00:00 0,4 -0,2 0,0 2,6 6,4 23 13 34 18 NE 1015,5 6 0 0,2
15.01.2021 01:00:00 0,5 -0,1 0,0 2,7 6,4 18 10 27 15 NE 1015,1 7 0 0,2
15.01.2021 00:00:00 0,4 0,0 0,0 2,6 6,4 19 10 28 15 NE 1014,8 2,2 0 0,6
14.01.2021 23:00:00 0,5 -0,1 0,0 2,7 6,4 16 9 22 12 NE 1014,5 6 0 0,4
14.01.2021 22:00:00 0,6 0,2 0,0 2,7 6,4 11 6 16 9 NE 1014,3 6 0 1,3
14.01.2021 21:00:00 0,7 0,3 0,0 2,7 6,4 9 5 22 12 NE 1014,2 8 0 1,8
14.01.2021 20:00:00 0,5 0,2 0,0 2,7 6,5 11 6 18 10 ENE 1015,0 7 0 1,4
14.01.2021 19:00:00 0,3 -0,1 0,0 2,7 6,4 12 6 21 11 ENE 1015,7 7 0 1,2
14.01.2021 18:00:00 0,2 -0,2 0,0 2,7 6,4 13 7 27 15 ENE 1016,6 2,3 0 0,6
14.01.2021 17:00:00 0,3 -0,3 0,0 2,7 6,5 19 10 32 17 ENE 1017,3 5 0 0,2
14.01.2021 16:00:00 0,5 -0,4 0,1 2,7 6,5 19 10 33 18 ENE 1017,9 5 0 0,0
14.01.2021 15:00:00 0,6 -0,1 0,0 2,7 6,5 22 12 32 17 E 1018,4 3,1 0 0,4
14.01.2021 14:00:00 0,7 0,1 0,3 2,7 6,5 13 7 19 11 ENE 1018,8 2,3 0 0,6

tt = temperature
td = dewpoint
tt 5cm = temperature 5cm
tt -20cm = temperature -20cm
tt -100cm = temperature -100cm
ff = wind speed
fx = gusts
dd = wind direction
ppp = reduced air pressure
vv = visibility
sd = sunshine duration
rr = precipitation

Next stations